Location: Unspecified
(0.0000°N, 0.0000°E)
Time: 07:31:49
(UTC+01:00)

OPAL - Visible Passes

Search period start: 27 November 2014 00:00
Search period end: 07 December 2014 00:00
Orbit: 744 x 797 km, 100.2° (Epoch: 26 November)

Date Brightness Start Highest point End Pass type
(mag) Time Alt. Az. Time Alt. Az. Time Alt. Az.
27 Nov 7.6 06:19:00 10° SSE 06:24:03 87° ENE 06:29:02 10° NNW visible
28 Nov 9.3 05:44:31 10° SE 05:48:53 30° ENE 05:53:11 10° NNE visible
29 Nov 10.5 05:12:59 10° E 05:13:44 10° ENE 05:14:28 10° ENE visible
29 Nov 10.1 19:20:22 10° NNW 19:23:50 19° WNW 19:27:21 10° WSW visible
30 Nov 7.9 06:12:12 10° SSE 06:17:11 66° ENE 06:22:05 10° N visible
01 Dec 9.7 05:38:06 10° SE 05:42:01 23° ENE 05:45:53 10° NNE visible
02 Dec 9.9 19:12:55 10° NNW 19:16:59 24° WNW 19:21:06 10° SW visible
03 Dec 8.4 06:05:28 10° SSE 06:10:19 50° ENE 06:15:04 10° N visible
04 Dec 10.1 05:31:51 10° ESE 05:35:08 18° ENE 05:38:24 10° NE visible
04 Dec 10.5 19:43:56 10° WNW 19:45:16 11° WNW 19:46:37 10° W visible
06 Dec 8.9 05:58:50 10° SE 06:03:25 38° ENE 06:07:58 10° N visible
